N66HR EDXW-EDLP

Flight info

Callsign N66HR
Flight time 0h 59m
Altitude 24000
Route OLDI1B/32 OLDIP DCT BADOS DCT OMWEG Y348 ELSOB N850 ROBEG DCT PIROT DCT LARBU N850 WRB WRB6H/06
Aircraft SF50/L-V/N

Departure

Time 2026-04-30 19:11
Airport Westerland Sylt Airport (EDXW)

Arrival

Time 2026-04-30 20:10
Airport Paderborn Lippstadt Airport (EDLP)
Time Latitude Longitude Altitude Speed Heading
2026-04-30 18:58 54.91316 8.32465 24 ft 0 kts 252°
2026-04-30 19:04 54.91326 8.32504 24 ft 11 kts 131°
2026-04-30 19:04 54.91207 8.32594 24 ft 20 kts 158°
2026-04-30 19:05 54.91060 8.32871 26 ft 14 kts 115°
2026-04-30 19:05 54.90984 8.33054 27 ft 14 kts 131°
2026-04-30 19:06 54.90706 8.33234 26 ft 25 kts 179°
2026-04-30 19:06 54.90520 8.33261 24 ft 26 kts 168°
2026-04-30 19:06 54.90282 8.33618 23 ft 25 kts 112°
2026-04-30 19:07 54.90252 8.34317 26 ft 32 kts 80°
2026-04-30 19:07 54.90290 8.34641 27 ft 23 kts 80°
2026-04-30 19:08 54.90316 8.34944 29 ft 0 kts 81°
2026-04-30 19:09 54.90324 8.35001 30 ft 9 kts 68°
2026-04-30 19:09 54.90352 8.35104 31 ft 10 kts 54°
2026-04-30 19:10 54.90458 8.35106 31 ft 21 kts 326°
2026-04-30 19:10 54.91383 8.33913 384 ft 119 kts 322°
2026-04-30 19:11 54.92156 8.32902 698 ft 159 kts 324°
2026-04-30 19:11 54.94253 8.30334 1524 ft 205 kts 326°
2026-04-30 19:11 54.95464 8.28850 1921 ft 220 kts 325°
2026-04-30 19:12 54.96731 8.27293 2309 ft 223 kts 326°
2026-04-30 19:12 54.97945 8.25658 2664 ft 221 kts 309°
2026-04-30 19:12 54.98337 8.23203 3048 ft 216 kts 263°
2026-04-30 19:13 54.97010 8.18736 3814 ft 207 kts 234°
2026-04-30 19:13 54.95287 8.14478 3973 ft 221 kts 232°
2026-04-30 19:13 54.94192 8.12699 3970 ft 218 kts 197°
2026-04-30 19:14 54.92736 8.12851 4473 ft 215 kts 156°
2026-04-30 19:14 54.91446 8.14148 4992 ft 222 kts 144°
2026-04-30 19:14 54.90196 8.15763 5499 ft 228 kts 140°
2026-04-30 19:14 54.88939 8.17502 6014 ft 233 kts 139°
2026-04-30 19:15 54.87690 8.19266 6511 ft 236 kts 139°
2026-04-30 19:15 54.85139 8.22881 7511 ft 239 kts 138°
2026-04-30 19:15 54.83851 8.24709 8015 ft 240 kts 138°
2026-04-30 19:16 54.82550 8.26538 8517 ft 241 kts 141°
2026-04-30 19:16 54.81155 8.28094 9012 ft 241 kts 144°
2026-04-30 19:16 54.78337 8.31174 10004 ft 241 kts 144°
2026-04-30 19:17 54.76922 8.32721 10507 ft 241 kts 144°
2026-04-30 19:17 54.74112 8.35785 11484 ft 239 kts 144°
2026-04-30 19:17 54.72704 8.37318 11980 ft 238 kts 144°
2026-04-30 19:18 54.70391 8.39837 12791 ft 236 kts 144°
2026-04-30 19:18 54.68622 8.41959 13411 ft 231 kts 126°
2026-04-30 19:18 54.67911 8.44385 13929 ft 225 kts 111°
2026-04-30 19:19 54.67313 8.46833 14417 ft 224 kts 110°
2026-04-30 19:19 54.66723 8.49315 14909 ft 223 kts 109°
2026-04-30 19:19 54.65562 8.54238 15899 ft 220 kts 109°
2026-04-30 19:20 54.64996 8.56640 16384 ft 219 kts 109°
2026-04-30 19:20 54.64424 8.59063 16878 ft 217 kts 109°
2026-04-30 19:20 54.63298 8.63822 17865 ft 214 kts 108°
2026-04-30 19:21 54.62741 8.66174 18301 ft 215 kts 109°
2026-04-30 19:21 54.61381 8.70968 18805 ft 237 kts 130°
2026-04-30 19:22 54.59040 8.75133 19336 ft 248 kts 130°
2026-04-30 19:22 54.55344 8.81617 20104 ft 258 kts 130°
2026-04-30 19:23 54.51529 8.88286 20863 ft 264 kts 130°
2026-04-30 19:24 54.48944 8.92795 21367 ft 266 kts 130°
2026-04-30 19:24 54.47651 8.95047 21623 ft 267 kts 131°
2026-04-30 19:24 54.45021 8.99623 22134 ft 269 kts 131°
2026-04-30 19:25 54.41085 9.06451 22889 ft 270 kts 130°
2026-04-30 19:26 54.38454 9.11008 23403 ft 271 kts 131°
2026-04-30 19:26 54.35509 9.14990 23914 ft 275 kts 146°
2026-04-30 19:26 54.33856 9.16657 24179 ft 275 kts 146°
2026-04-30 19:27 54.30541 9.19977 24437 ft 285 kts 146°
2026-04-30 19:27 54.27031 9.23474 24443 ft 299 kts 146°
2026-04-30 19:28 54.25216 9.25281 24440 ft 304 kts 146°
2026-04-30 19:28 54.21525 9.28948 24434 ft 310 kts 146°
2026-04-30 19:29 54.17775 9.32665 24428 ft 314 kts 146°
2026-04-30 19:29 54.15879 9.34541 24425 ft 315 kts 146°
2026-04-30 19:30 54.10188 9.40162 24423 ft 318 kts 146°
2026-04-30 19:30 54.06353 9.43939 24420 ft 318 kts 146°
2026-04-30 19:31 54.02517 9.47709 24423 ft 319 kts 146°
2026-04-30 19:31 54.00559 9.49489 24395 ft 323 kts 157°
2026-04-30 19:31 53.96127 9.50731 24424 ft 325 kts 169°
2026-04-30 19:32 53.93903 9.51261 24422 ft 326 kts 169°
2026-04-30 19:32 53.91645 9.51793 24422 ft 326 kts 169°
2026-04-30 19:32 53.89411 9.52319 24422 ft 326 kts 169°
2026-04-30 19:32 53.87164 9.52845 24417 ft 326 kts 169°
2026-04-30 19:33 53.84916 9.53372 24417 ft 326 kts 169°
2026-04-30 19:33 53.82676 9.53894 24417 ft 326 kts 169°
2026-04-30 19:33 53.80430 9.54418 24417 ft 325 kts 169°
2026-04-30 19:33 53.78189 9.54941 24417 ft 325 kts 169°
2026-04-30 19:34 53.75977 9.55457 24416 ft 325 kts 169°
2026-04-30 19:34 53.73734 9.55978 24416 ft 325 kts 168°
2026-04-30 19:34 53.69239 9.57024 24419 ft 325 kts 168°
2026-04-30 19:35 53.67019 9.57540 24417 ft 325 kts 168°
2026-04-30 19:35 53.64774 9.57863 24396 ft 329 kts 181°
2026-04-30 19:35 53.62511 9.57618 24422 ft 327 kts 181°
2026-04-30 19:35 53.60234 9.57359 24420 ft 327 kts 181°
2026-04-30 19:36 53.57955 9.57094 24421 ft 328 kts 181°
2026-04-30 19:36 53.55689 9.56832 24423 ft 328 kts 181°
2026-04-30 19:36 53.51168 9.56530 24433 ft 326 kts 176°
2026-04-30 19:37 53.48930 9.55859 24426 ft 328 kts 186°
2026-04-30 19:37 53.46679 9.55264 24429 ft 328 kts 186°
2026-04-30 19:37 53.44414 9.54729 24432 ft 328 kts 185°
2026-04-30 19:37 53.42151 9.54222 24430 ft 328 kts 185°
2026-04-30 19:38 53.39896 9.53729 24431 ft 328 kts 184°
2026-04-30 19:38 53.37636 9.53238 24430 ft 328 kts 185°
2026-04-30 19:38 53.35403 9.52756 24433 ft 328 kts 185°
2026-04-30 19:38 53.33138 9.52266 24431 ft 328 kts 184°
2026-04-30 19:39 53.30868 9.51775 24428 ft 328 kts 184°
2026-04-30 19:39 53.28608 9.51290 24426 ft 328 kts 184°
2026-04-30 19:39 53.26337 9.50801 24423 ft 328 kts 184°
2026-04-30 19:39 53.24097 9.50321 24423 ft 328 kts 184°
2026-04-30 19:40 53.21823 9.49834 24422 ft 328 kts 184°
2026-04-30 19:40 53.19573 9.49350 24420 ft 328 kts 184°
2026-04-30 19:40 53.17302 9.48864 24420 ft 328 kts 184°
2026-04-30 19:40 53.15032 9.48381 24420 ft 328 kts 184°
2026-04-30 19:41 53.12767 9.47897 24419 ft 328 kts 184°
2026-04-30 19:41 53.10520 9.47417 24418 ft 328 kts 184°
2026-04-30 19:41 53.08256 9.46936 24418 ft 328 kts 184°
2026-04-30 19:41 53.05984 9.46451 24417 ft 328 kts 184°
2026-04-30 19:42 53.03746 9.45973 24418 ft 328 kts 184°
2026-04-30 19:42 53.01469 9.45491 24418 ft 328 kts 184°
2026-04-30 19:42 52.99243 9.45002 24416 ft 329 kts 187°
2026-04-30 19:42 52.96990 9.44358 24417 ft 326 kts 180°
2026-04-30 19:43 52.94751 9.43984 24421 ft 326 kts 183°
2026-04-30 19:43 52.92487 9.43540 24418 ft 327 kts 184°
2026-04-30 19:43 52.90234 9.43077 24419 ft 327 kts 184°
2026-04-30 19:44 52.85724 9.42125 24415 ft 327 kts 184°
2026-04-30 19:44 52.83462 9.41643 24413 ft 327 kts 184°
2026-04-30 19:44 52.81210 9.41164 24415 ft 327 kts 184°
2026-04-30 19:44 52.78958 9.40684 24415 ft 327 kts 184°
2026-04-30 19:45 52.76726 9.40210 24416 ft 327 kts 184°
2026-04-30 19:45 52.74462 9.39729 24414 ft 327 kts 184°
2026-04-30 19:45 52.72213 9.39251 24417 ft 327 kts 184°
2026-04-30 19:45 52.69947 9.38773 24416 ft 327 kts 184°
2026-04-30 19:46 52.67716 9.38300 24417 ft 327 kts 184°
2026-04-30 19:46 52.65439 9.37819 24415 ft 327 kts 184°
2026-04-30 19:46 52.63211 9.37348 24418 ft 327 kts 184°
2026-04-30 19:46 52.60939 9.37096 24406 ft 327 kts 184°
2026-04-30 19:47 52.58708 9.36318 24360 ft 328 kts 187°
2026-04-30 19:47 52.57212 9.35866 24083 ft 335 kts 186°
2026-04-30 19:47 52.54167 9.35021 23548 ft 329 kts 186°
2026-04-30 19:47 52.51937 9.34424 23147 ft 320 kts 185°
2026-04-30 19:48 52.49761 9.33850 22750 ft 313 kts 185°
2026-04-30 19:48 52.47653 9.33294 22357 ft 308 kts 185°
2026-04-30 19:48 52.45536 9.32743 21960 ft 304 kts 184°
2026-04-30 19:48 52.43485 9.32207 21573 ft 301 kts 184°
2026-04-30 19:49 52.41417 9.31670 21185 ft 299 kts 184°
2026-04-30 19:49 52.37355 9.30611 20419 ft 295 kts 184°
2026-04-30 19:49 52.35328 9.30084 20035 ft 294 kts 184°
2026-04-30 19:50 52.33332 9.29840 19636 ft 293 kts 185°
2026-04-30 19:50 52.31343 9.29164 19275 ft 291 kts 186°
2026-04-30 19:50 52.29346 9.28574 18895 ft 290 kts 185°
2026-04-30 19:50 52.27364 9.28028 18517 ft 289 kts 184°
2026-04-30 19:51 52.25408 9.27503 18145 ft 288 kts 184°
2026-04-30 19:51 52.23425 9.26978 17768 ft 287 kts 185°
2026-04-30 19:51 52.21484 9.26284 17365 ft 282 kts 174°
2026-04-30 19:51 52.19548 9.26122 17024 ft 281 kts 178°
2026-04-30 19:52 52.17596 9.25846 16648 ft 281 kts 179°
2026-04-30 19:52 52.15675 9.25533 16280 ft 280 kts 180°
2026-04-30 19:52 52.13739 9.25197 15962 ft 279 kts 180°
2026-04-30 19:52 52.11837 9.24858 15615 ft 279 kts 180°
2026-04-30 19:53 52.09903 9.24512 15256 ft 278 kts 179°
2026-04-30 19:53 52.07990 9.24165 14889 ft 277 kts 179°
2026-04-30 19:53 52.06096 9.23825 14522 ft 276 kts 180°
2026-04-30 19:53 52.04282 9.22681 14154 ft 285 kts 206°
2026-04-30 19:54 52.02652 9.20878 13781 ft 284 kts 212°
2026-04-30 19:54 52.01117 9.18912 13416 ft 282 kts 214°
2026-04-30 19:54 51.99620 9.16869 13054 ft 280 kts 216°
2026-04-30 19:54 51.98172 9.14834 12690 ft 278 kts 216°
2026-04-30 19:55 51.96712 9.12766 12312 ft 277 kts 217°
2026-04-30 19:55 51.95272 9.10711 11939 ft 275 kts 217°
2026-04-30 19:55 51.93854 9.08678 11573 ft 273 kts 217°
2026-04-30 19:55 51.92437 9.06645 11205 ft 272 kts 217°
2026-04-30 19:56 51.91031 9.04637 10832 ft 270 kts 217°
2026-04-30 19:56 51.89619 9.02618 10456 ft 269 kts 217°
2026-04-30 19:56 51.88217 9.00619 10079 ft 268 kts 217°
2026-04-30 19:56 51.86842 8.98658 9703 ft 266 kts 217°
2026-04-30 19:57 51.85459 8.96690 9322 ft 265 kts 217°
2026-04-30 19:57 51.84069 8.94712 8939 ft 264 kts 217°
2026-04-30 19:57 51.82705 8.92763 8561 ft 263 kts 217°
2026-04-30 19:57 51.81339 8.90806 8193 ft 268 kts 217°
2026-04-30 19:58 51.79935 8.88794 7839 ft 272 kts 217°
2026-04-30 19:58 51.78502 8.86765 7484 ft 274 kts 217°
2026-04-30 19:58 51.77102 8.84782 7396 ft 265 kts 217°
2026-04-30 19:58 51.75745 8.82854 7409 ft 255 kts 217°
2026-04-30 19:59 51.74436 8.81002 7411 ft 251 kts 217°
2026-04-30 19:59 51.73138 8.79165 7383 ft 247 kts 216°
2026-04-30 19:59 51.70596 8.75572 7384 ft 240 kts 216°
2026-04-30 20:00 51.69339 8.73794 7400 ft 238 kts 216°
2026-04-30 20:00 51.68103 8.72046 7397 ft 238 kts 216°
2026-04-30 20:00 51.66849 8.70279 7398 ft 238 kts 216°
2026-04-30 20:00 51.65617 8.68544 7396 ft 238 kts 217°
2026-04-30 20:01 51.64525 8.63508 7397 ft 247 kts 259°
2026-04-30 20:01 51.64221 8.60776 7397 ft 247 kts 258°
2026-04-30 20:01 51.63916 8.58061 7397 ft 247 kts 258°
2026-04-30 20:02 51.63312 8.52617 7161 ft 255 kts 258°
2026-04-30 20:02 51.63000 8.49809 6797 ft 259 kts 258°
2026-04-30 20:03 51.62381 8.44101 5831 ft 254 kts 258°
2026-04-30 20:03 51.62090 8.41342 5205 ft 245 kts 258°
2026-04-30 20:03 51.61813 8.38715 4588 ft 238 kts 254°
2026-04-30 20:03 51.60939 8.36690 4115 ft 215 kts 206°
2026-04-30 20:04 51.59580 8.35995 3762 ft 202 kts 187°
2026-04-30 20:04 51.58224 8.35484 3392 ft 200 kts 187°
2026-04-30 20:04 51.56853 8.34988 3061 ft 205 kts 186°
2026-04-30 20:05 51.54420 8.35439 2983 ft 164 kts 154°
2026-04-30 20:05 51.53390 8.36059 2978 ft 154 kts 149°
2026-04-30 20:05 51.52946 8.38869 2990 ft 141 kts 80°
2026-04-30 20:06 51.53210 8.40372 2982 ft 137 kts 79°
2026-04-30 20:06 51.53471 8.41859 2991 ft 136 kts 79°
2026-04-30 20:06 51.53854 8.43225 2991 ft 136 kts 61°
2026-04-30 20:06 51.54384 8.44496 2960 ft 140 kts 63°
2026-04-30 20:07 51.54940 8.45853 2792 ft 152 kts 63°
2026-04-30 20:07 51.55551 8.47341 2604 ft 165 kts 63°
2026-04-30 20:07 51.56810 8.50395 2157 ft 162 kts 62°
2026-04-30 20:08 51.57426 8.51898 1943 ft 161 kts 62°
2026-04-30 20:08 51.58018 8.53331 1719 ft 139 kts 63°
2026-04-30 20:08 51.58494 8.54493 1540 ft 114 kts 63°
2026-04-30 20:08 51.58904 8.55498 1420 ft 103 kts 63°
2026-04-30 20:09 51.59296 8.56464 1282 ft 103 kts 62°
2026-04-30 20:09 51.59688 8.57427 1147 ft 103 kts 62°
2026-04-30 20:09 51.60457 8.59263 879 ft 93 kts 64°
2026-04-30 20:10 51.61084 8.60822 699 ft 67 kts 58°
2026-04-30 20:10 51.61297 8.61371 697 ft 45 kts 53°
2026-04-30 20:10 51.61419 8.61675 698 ft 25 kts 59°
2026-04-30 20:11 51.61418 8.62005 705 ft 6 kts 154°
2026-04-30 20:11 51.61331 8.62011 710 ft 21 kts 190°
2026-04-30 20:11 51.61221 8.61974 718 ft 10 kts 195°
2026-04-30 20:12 51.61091 8.61707 720 ft 17 kts 237°
2026-04-30 20:12 51.61040 8.61579 719 ft 10 kts 239°
2026-04-30 20:12 51.60990 8.61480 719 ft 8 kts 176°
2026-04-30 20:13 51.60978 8.61560 721 ft 7 kts 52°
2026-04-30 20:13 51.60995 8.61603 722 ft 0 kts 54°
2026-04-30 20:13 51.61002 8.61616 722 ft 0 kts 43°